Location: Gunnison Valley Observatory
(38.5087°N, 106.9386°W)
Time: 07:16:15
(UTC-07:00)

Amateur Radio Satellites - All Passes

Search period start: 29 January 2015 06:46
Search period end: 30 January 2015 06:46
Location: Gunnison Valley Observatory, 38.5087°N, 106.9386°W

Satellite Date Start Highest point End Downlink Frequencies (MHz)
Time Altitude Azimuth
YUBILEINY 29 Jan 07:00:40 07:09:31 88° 86° (E) 07:18:21 435.215
CUBESAT XI-V 29 Jan 07:21:20 07:23:45 14° 271° (W) 07:25:57 437.345
STRAND 1 29 Jan 07:24:18 07:28:07 20° 268° (W) 07:31:48 437.568
VERMONT LUNAR 29 Jan 07:31:49 07:34:08 17° 147° (SSE) 07:36:31 437.305
Cubesat XI-IV 29 Jan 07:58:48 08:02:18 17° 296° (WNW) 08:05:35 437.490
SEEDS 29 Jan 08:03:32 08:05:27 13° 90° (E) 08:07:34 437.485
HO-68 29 Jan 08:13:38 08:19:52 32° 96° (E) 08:26:12 435.675
CUTE-I 29 Jan 08:20:16 08:22:07 11° 299° (WNW) 08:23:38 437.470
COMPASS 1 29 Jan 08:29:06 08:32:18 22° 94° (E) 08:35:34 437.405
PHONESAT 2.4 29 Jan 08:29:40 08:32:42 26° 150° (SSE) 08:35:47 2401.200-2431.200
GOMX 1 29 Jan 08:39:20 08:44:32 46° 97° (E) 08:49:29 467.674
CINEMA 3 29 Jan 08:40:01 08:43:03 17° 90° (E) 08:46:11 145.822/145.860
CANX-2 29 Jan 08:42:40 08:46:47 51° 99° (E) 08:50:54 2200.000
BRITE-PL 29 Jan 08:43:33 08:49:15 74° 101° (E) 08:54:41 437.365/2234.400
DOVE 4 29 Jan 08:51:46 08:56:41 43° 96° (E) 09:01:24 437.250
DELFI C3 29 Jan 08:51:59 08:53:35 12° 90° (E) 08:55:25 145.870
AAUSAT CUBESAT 2 29 Jan 08:54:55 08:58:47 38° 97° (E) 09:02:40 437.432
RS-15 29 Jan 08:57:05 09:04:03 18° 348° (NNW) 09:10:56 29.354- 29.394
UWE-3 29 Jan 08:57:10 08:58:15 11° 87° (E) 08:59:37 435.000/436.395/437.385
YUBILEINY 29 Jan 08:59:57 09:05:19 17° 280° (W) 09:10:08 435.215
POLYITAN 1 29 Jan 09:00:29 09:01:19 11° 64° (ENE) 09:02:24 437.675
UNISAT 6 29 Jan 09:01:26 09:04:53 21° 68° (ENE) 09:08:27 437.425
CUTE 1.7 + AOD 2 29 Jan 09:06:45 09:11:00 90° 291° (WNW) 09:15:13 437.475
VERMONT LUNAR 29 Jan 09:08:26 09:11:54 72° 161° (SSE) 09:15:24 437.305
Oscar 11 29 Jan 09:08:34 09:12:10 26° 95° (E) 09:15:48 145.826/435.025
POPSAT HIP 1 29 Jan 09:18:31 09:21:12 17° 67° (ENE) 09:24:03 437.405
DUCHIFAT 1 29 Jan 09:21:03 09:23:50 18° 68° (ENE) 09:26:47 145.980
SO-50 29 Jan 09:35:18 09:39:11 29° 113° (ESE) 09:43:15 436.795
ANTELSAT 29 Jan 09:36:12 09:40:43 48° 73° (ENE) 09:45:16 437.575/2403.000
SEEDS 29 Jan 09:37:35 09:41:36 45° 286° (WNW) 09:45:35 437.485
UKube-1 29 Jan 09:43:41 09:47:41 35° 97° (E) 09:51:41 .
TIGRISAT 29 Jan 09:43:49 09:48:26 56° 74° (ENE) 09:53:03 435.000
CUBEBUG 2 29 Jan 09:50:55 09:55:25 56° 99° (E) 09:59:46 437.445
NANOSAT C BR1 29 Jan 09:54:16 09:58:17 41° 73° (ENE) 10:02:21 145.865
BEESAT 3 29 Jan 09:57:53 10:00:09 14° 43° (NE) 10:02:31 437.485
ZACube-1 29 Jan 09:58:26 10:02:42 46° 98° (E) 10:06:51 437.345
HO-68 29 Jan 10:01:00 10:07:46 46° 293° (WNW) 10:14:27 435.675
HUMSAT D 29 Jan 10:01:30 10:05:02 26° 95° (E) 10:08:34 437.325/437.525
DX 1 29 Jan 10:04:16 10:08:39 65° 101° (E) 10:13:01 434.975-435.025
COMPASS 1 29 Jan 10:04:29 10:08:03 27° 289° (WNW) 10:11:32 437.405
PHONESAT 2.4 29 Jan 10:07:26 10:11:03 88° 336° (NNW) 10:14:42 2401.200-2431.200
QB50P2 29 Jan 10:08:23 10:12:36 63° 75° (ENE) 10:16:52 145.880/145.840
FUNcube-1 29 Jan 10:10:17 10:14:41 63° 101° (E) 10:18:56 145.935
CINEMA 3 29 Jan 10:15:58 10:20:36 45° 288° (WNW) 10:25:00 145.822/145.860
QB50P1 29 Jan 10:17:39 10:21:54 80° 76° (ENE) 10:26:13 145.935-145.965
GOMX 1 29 Jan 10:18:10 10:22:18 22° 294° (WNW) 10:26:10 467.674
CANX-2 29 Jan 10:20:18 10:22:21 13° 294° (WNW) 10:24:13 2200.000
BRITE-PL 29 Jan 10:23:45 10:27:07 16° 297° (WNW) 10:30:11 437.365/2234.400
DELFI C3 29 Jan 10:25:17 10:29:09 45° 287° (WNW) 10:33:00 145.870
AISAT 29 Jan 10:29:06 10:33:26 44° 99° (E) 10:37:45 437.250
BUGSAT 1 29 Jan 10:29:14 10:33:19 82° 77° (ENE) 10:37:30 437.445
DOVE 4 29 Jan 10:30:12 10:34:09 22° 293° (WNW) 10:37:50 437.250
UWE-3 29 Jan 10:30:54 10:35:22 60° 285° (WNW) 10:39:38 435.000/436.395/437.385
AAUSAT CUBESAT 2 29 Jan 10:31:32 10:34:12 16° 292° (WNW) 10:36:42 437.432
POLYITAN 1 29 Jan 10:32:29 10:36:45 68° 259° (W) 10:41:05 437.675
ESTCUBE 1 29 Jan 10:32:47 10:36:09 21° 93° (E) 10:39:38 437.505/2401.250
UNISAT 6 29 Jan 10:37:03 10:41:28 38° 263° (W) 10:45:51 437.425
Oscar 11 29 Jan 10:44:45 10:48:18 25° 290° (WNW) 10:51:44 145.826/435.025
VERMONT LUNAR 29 Jan 10:46:38 10:50:06 60° 358° (N) 10:53:35 437.305
AIST 1 29 Jan 10:51:13 10:55:04 35° 92° (E) 10:58:59
POPSAT HIP 1 29 Jan 10:52:48 10:56:50 39° 262° (W) 11:00:53 437.405
DUCHIFAT 1 29 Jan 10:55:29 10:59:28 37° 263° (W) 11:03:27 145.980
VELOX 1 29 Jan 10:57:12 11:01:44 90° 286° (WNW) 11:06:13 145.980
CUBEBUG 1 29 Jan 11:05:27 11:09:43 44° 99° (E) 11:13:58 437.445
GONETS M04 29 Jan 11:07:52 11:14:16 23° 65° (ENE) 11:21:02
50 SAT 29 Jan 11:12:10 11:16:10 58° 285° (WNW) 11:20:05 437.505
RS-15 29 Jan 11:14:18 11:22:16 22° 23° (NNE) 11:30:44 29.354- 29.394
ANTELSAT 29 Jan 11:14:47 11:17:49 16° 269° (W) 11:20:39 437.575/2403.000
SO-50 29 Jan 11:15:37 11:19:42 30° 311° (NW) 11:23:52 436.795
AIST 2 29 Jan 11:17:02 11:20:52 31° 51° (NE) 11:24:40 435.215
UKube-1 29 Jan 11:20:27 11:23:39 20° 292° (WNW) 11:26:43 .
BEESAT 2 29 Jan 11:20:33 11:24:45 80° 59° (ENE) 11:28:52 435.950
TIGRISAT 29 Jan 11:23:06 11:25:36 14° 270° (W) 11:27:51 435.000
TISAT 1 29 Jan 11:28:21 11:31:10 18° 92° (E) 11:34:08 437.305
CUBEBUG 2 29 Jan 11:29:20 11:31:39 14° 295° (WNW) 11:33:45 437.445
NANOSAT C BR1 29 Jan 11:31:48 11:34:25 15° 269° (W) 11:36:52 145.865
BEESAT 3 29 Jan 11:34:37 11:38:44 61° 242° (WSW) 11:42:46 437.485
ZACube-1 29 Jan 11:36:04 11:38:43 15° 294° (WNW) 11:41:09 437.345
HUMSAT D 29 Jan 11:37:20 11:40:46 24° 290° (WNW) 11:44:05 437.325/437.525
DX 1 29 Jan 11:42:47 11:44:26 12° 296° (WNW) 11:45:52 434.975-435.025
PHONESAT 2.4 29 Jan 11:46:10 11:49:46 61° 2° (N) 11:53:24 2401.200-2431.200
QB50P2 29 Jan 11:48:44 11:49:02 10° 272° (W) 11:49:03 145.880/145.840
FUNcube-1 29 Jan 11:48:55 11:50:32 12° 296° (WNW) 11:51:54 145.935
PCSat 29 Jan 11:55:26 11:57:48 13° 41° (NE) 12:00:24 145.827
Oscar 19 29 Jan 11:58:03 12:02:19 27° 68° (ENE) 12:06:42 437.125/150
AISAT 29 Jan 12:06:47 12:09:45 17° 293° (WNW) 12:12:33 437.250
ESTCUBE 1 29 Jan 12:09:02 12:13:09 34° 289° (WNW) 12:17:12 437.505/2401.250
ITAMSAT 1 29 Jan 12:16:21 12:18:56 14° 63° (ENE) 12:21:46 435.822/435.867
VERMONT LUNAR 29 Jan 12:24:50 12:28:21 90° 283° (WNW) 12:31:54 437.305
SPROUT 29 Jan 12:26:18 12:30:41 86° 102° (ESE) 12:35:01 437.525
AIST 1 29 Jan 12:30:08 12:32:56 16° 289° (WNW) 12:35:35
CUBEBUG 1 29 Jan 12:42:54 12:45:47 17° 293° (WNW) 12:48:30 437.445
AIST 2 29 Jan 12:55:54 12:59:22 24° 247° (WSW) 13:02:42 435.215
TISAT 1 29 Jan 13:03:12 13:07:11 36° 288° (WNW) 13:11:05 437.305
GONETS M04 29 Jan 13:03:26 13:12:05 72° 266° (W) 13:20:41
Gurwin Techsat 1B 29 Jan 13:12:04 13:16:43 33° 69° (ENE) 13:21:27 435.225
PHONESAT 2.4 29 Jan 13:24:48 13:28:26 69° 200° (SSW) 13:32:04 2401.200-2431.200
RS-15 29 Jan 13:26:36 13:37:47 61° 52° (NE) 13:49:32 29.354- 29.394
AO-7 29 Jan 13:28:46 13:33:45 18° 53° (NE) 13:39:06 29.400- 29.500
SWISSCUBE 29 Jan 13:32:15 13:37:01 65° 102° (ESE) 13:41:46 437.505
PCSat 29 Jan 13:36:46 13:42:14 79° 63° (ENE) 13:47:39 145.827
Oscar 19 29 Jan 13:36:50 13:41:34 34° 263° (W) 13:46:16 437.125/150
BEESAT 29 Jan 13:47:59 13:52:48 87° 104° (ESE) 13:57:35 436.000
ITUPSAT 1 29 Jan 13:52:01 13:56:50 87° 281° (W) 14:01:38 437.325
ITAMSAT 1 29 Jan 13:52:46 13:57:56 70° 259° (W) 14:03:07 435.822/435.867
DANDE 29 Jan 13:58:44 14:02:06 15° 56° (ENE) 14:05:20 436.750
STARS 29 Jan 14:00:07 14:02:17 14° 90° (E) 14:04:41 437.465
VERMONT LUNAR 29 Jan 14:03:19 14:06:15 24° 210° (SSW) 14:09:10 437.305
KKS-1 29 Jan 14:05:47 14:09:28 25° 95° (E) 14:13:13 437.445
CUSAT 1 29 Jan 14:25:36 14:30:41 27° 66° (ENE) 14:34:48 437.405
HORYU 2 29 Jan 14:51:45 14:56:16 81° 258° (WSW) 15:00:47 437.375
Gurwin Techsat 1B 29 Jan 14:52:06 14:56:43 29° 265° (W) 15:01:17 435.225
AUBIESAT-1 29 Jan 14:57:30 14:59:31 15° 99° (E) 15:01:41 437.475
O/OREOS (USA 219) 29 Jan 14:57:31 14:59:35 13° 100° (E) 15:01:54 437.305
PHONESAT 2.4 29 Jan 15:04:09 15:06:39 17° 213° (SSW) 15:09:05 2401.200-2431.200
GONETS M04 29 Jan 15:05:01 15:07:34 11° 283° (WNW) 15:09:21
SWISSCUBE 29 Jan 15:12:01 15:14:25 13° 296° (WNW) 15:16:34 437.505
AO-7 29 Jan 15:17:06 15:25:27 82° 72° (ENE) 15:33:53 29.400- 29.500
PCSat 29 Jan 15:22:42 15:25:03 12° 256° (WSW) 15:27:04 145.827
JAS-2 29 Jan 15:30:53 15:35:57 40° 71° (ENE) 15:40:49 435.910
STARS 29 Jan 15:34:49 15:39:08 49° 287° (WNW) 15:43:24 437.465
RS-15 29 Jan 15:39:33 15:49:54 39° 251° (WSW) 16:00:22 29.354- 29.394
DANDE 29 Jan 15:40:21 15:46:55 74° 265° (W) 15:51:43 436.750
KKS-1 29 Jan 15:42:15 15:46:06 28° 290° (WNW) 15:49:53 437.445
MOZHAYETS 4 29 Jan 15:48:14 15:50:00 12° 89° (E) 15:52:02
M-CUBED/EXP-1 PRIME 29 Jan 15:58:21 16:01:38 61° 289° (WNW) 16:05:01 437.505
Cubesat XI-IV 29 Jan 16:02:45 16:03:54 11° 60° (ENE) 16:05:22 437.490
CUSAT 1 29 Jan 16:08:35 16:13:47 31° 273° (W) 16:17:46 437.405
CUTE-I 29 Jan 16:20:28 16:23:34 16° 64° (ENE) 16:26:55 437.470
AUBIESAT-1 29 Jan 16:31:45 16:34:32 24° 293° (WNW) 16:37:20 437.475
O/OREOS (USA 219) 29 Jan 16:34:13 16:38:35 51° 295° (WNW) 16:43:01 437.305
AO-7 29 Jan 17:13:26 17:19:17 19° 270° (W) 17:24:40 29.400- 29.500
JAS-2 29 Jan 17:16:58 17:21:18 22° 266° (W) 17:25:18 435.910
MOZHAYETS 4 29 Jan 17:23:12 17:27:42 57° 285° (WNW) 17:32:10
PRISM 29 Jan 17:34:08 17:36:35 16° 92° (E) 17:39:12 437.425
Cubesat XI-IV 29 Jan 17:37:58 17:43:16 86° 79° (E) 17:48:40 437.490
CUBESAT XI-V 29 Jan 17:41:00 17:43:39 15° 90° (E) 17:46:29 437.345
JUGNU 29 Jan 17:48:27 17:50:03 11° 174° (S) 17:51:42 437.505
STRAND 1 29 Jan 17:57:02 18:00:07 16° 91° (E) 18:03:25 437.568
CUTE-I 29 Jan 17:57:56 18:03:11 63° 258° (WSW) 18:08:30 437.470
YUBILEINY 29 Jan 18:06:32 18:12:03 20° 81° (E) 18:18:02 435.215
SO-50 29 Jan 18:07:54 18:11:44 23° 46° (NE) 18:15:40 436.795
HO-68 29 Jan 18:41:59 18:47:03 22° 60° (ENE) 18:52:22 435.675
PRISM 29 Jan 19:08:26 19:12:19 38° 288° (WNW) 19:16:10 437.425
CUBESAT XI-V 29 Jan 19:16:54 19:21:27 49° 286° (WNW) 19:25:58 437.345
COMPASS 1 29 Jan 19:20:34 19:22:41 14° 67° (ENE) 19:24:59 437.405
Cubesat XI-IV 29 Jan 19:23:37 19:24:13 10° 273° (W) 19:24:23 437.490
CANX-2 29 Jan 19:34:32 19:38:19 31° 72° (ENE) 19:42:08 2200.000
STRAND 1 29 Jan 19:34:41 19:39:44 55° 287° (WNW) 19:44:44 437.568
JUGNU 29 Jan 19:36:16 19:38:12 12° 184° (S) 19:40:05 437.505
CINEMA 3 29 Jan 19:40:45 19:43:34 16° 65° (ENE) 19:46:38 145.822/145.860
AAUSAT CUBESAT 2 29 Jan 19:45:13 19:48:29 23° 70° (ENE) 19:51:51 437.432
GOMX 1 29 Jan 19:45:33 19:50:16 42° 71° (ENE) 19:55:19 467.674
SO-50 29 Jan 19:47:50 19:52:36 49° 243° (WSW) 19:57:19 436.795
BRITE-PL 29 Jan 19:52:26 19:57:24 69° 76° (ENE) 20:02:50 437.365/2234.400
DOVE 4 29 Jan 19:55:31 20:00:08 38° 71° (ENE) 20:05:00 437.250
CUTE 1.7 + AOD 2 29 Jan 19:58:10 20:02:20 53° 75° (ENE) 20:06:32 437.475
YUBILEINY 29 Jan 19:59:20 20:08:01 78° 279° (W) 20:16:46 435.215
Oscar 11 29 Jan 20:02:45 20:05:41 18° 68° (ENE) 20:08:45 145.826/435.025
SRMSAT 29 Jan 20:17:11 20:19:28 12° 180° (S) 20:21:45 437.500
HO-68 29 Jan 20:27:05 20:34:12 71° 257° (WSW) 20:41:22 435.675
SEEDS 29 Jan 20:27:59 20:32:15 81° 258° (WSW) 20:36:31 437.485
UKube-1 29 Jan 20:37:45 20:41:18 26° 69° (ENE) 20:44:56 .
CUBEBUG 2 29 Jan 20:47:26 20:51:53 42° 72° (ENE) 20:56:24 437.445
ZACube-1 29 Jan 20:52:59 20:57:04 33° 71° (ENE) 21:01:13 437.345
HUMSAT D 29 Jan 20:53:00 20:55:48 18° 68° (ENE) 20:58:46 437.325/437.525
COMPASS 1 29 Jan 20:53:58 20:58:04 47° 262° (W) 21:02:10 437.405
DX 1 29 Jan 20:58:33 21:02:41 46° 73° (ENE) 21:06:54 434.975-435.025
FUNcube-1 29 Jan 21:04:28 21:08:48 43° 73° (ENE) 21:13:11 145.935
CANX-2 29 Jan 21:11:03 21:14:20 20° 267° (W) 21:17:30 2200.000
DELFI C3 29 Jan 21:11:42 21:15:48 89° 82° (E) 21:19:54 145.870
CINEMA 3 29 Jan 21:15:27 21:20:18 60° 260° (W) 21:25:18 145.822/145.860
AAUSAT CUBESAT 2 29 Jan 21:20:26 21:24:04 27° 265° (W) 21:27:38 437.432
GOMX 1 29 Jan 21:24:39 21:28:38 22° 269° (W) 21:32:40 467.674
AISAT 29 Jan 21:26:00 21:29:59 34° 71° (ENE) 21:34:03 437.250
UWE-3 29 Jan 21:26:00 21:30:42 90° 254° (WSW) 21:35:26 435.000/436.395/437.385
ESTCUBE 1 29 Jan 21:32:00 21:34:49 17° 67° (ENE) 21:37:49 437.505/2401.250
ANTELSAT 29 Jan 21:33:19 21:33:43 10° 88° (E) 21:34:25 437.575/2403.000
DOVE 4 29 Jan 21:33:56 21:38:02 24° 268° (W) 21:42:11 437.250
BRITE-PL 29 Jan 21:34:08 21:36:40 13° 274° (W) 21:38:57 437.365/2234.400
CUTE 1.7 + AOD 2 29 Jan 21:36:54 21:38:41 12° 271° (W) 21:40:13 437.475
Oscar 11 29 Jan 21:37:36 21:41:39 37° 263° (W) 21:45:41 145.826/435.025
ISS 29 Jan 21:38:45 21:42:02 83° 321° (NW) 21:45:20 145.825
TIGRISAT 29 Jan 21:39:32 21:41:13 12° 89° (E) 21:43:09 435.000
VELOX 1 29 Jan 21:53:29 21:57:52 68° 76° (ENE) 22:02:19 145.980
QB50P2 29 Jan 21:57:45 21:59:08 12° 89° (E) 22:00:47 145.880/145.840
50 SAT 29 Jan 21:57:48 22:01:54 69° 76° (ENE) 22:06:02 437.505
CUBEBUG 1 29 Jan 22:00:39 22:04:26 31° 71° (ENE) 22:08:19 437.445
YUBILEINY 29 Jan 22:02:04 22:06:40 14° 301° (WNW) 22:10:40 435.215
QB50P1 29 Jan 22:06:02 22:08:23 15° 91° (E) 22:10:54 145.935-145.965
UKube-1 29 Jan 22:13:48 22:17:26 25° 265° (W) 22:21:00 .
BUGSAT 1 29 Jan 22:14:45 22:16:55 14° 91° (E) 22:19:17 437.445
POLYITAN 1 29 Jan 22:20:28 22:23:47 22° 94° (E) 22:27:11 437.675
TISAT 1 29 Jan 22:21:09 22:22:38 12° 65° (ENE) 22:24:21 437.305
CUBEBUG 2 29 Jan 22:25:21 22:28:48 19° 269° (W) 22:32:07 437.445
HUMSAT D 29 Jan 22:27:14 22:31:20 39° 262° (W) 22:35:26 437.325/437.525
ZACube-1 29 Jan 22:29:50 22:33:31 23° 267° (W) 22:37:06 437.345
UNISAT 6 29 Jan 22:30:41 22:35:00 49° 99° (E) 22:39:13 437.425
DX 1 29 Jan 22:36:49 22:39:16 14° 269° (W) 22:41:32 434.975-435.025
AIST 1 29 Jan 22:36:51 22:41:13 79° 264° (W) 22:45:35
POPSAT HIP 1 29 Jan 22:39:41 22:43:39 35° 97° (E) 22:47:37 437.405
DUCHIFAT 1 29 Jan 22:41:56 22:45:56 37° 97° (E) 22:49:55 145.980
FUNcube-1 29 Jan 22:42:16 22:45:23 17° 269° (W) 22:48:21 145.935
AISAT 29 Jan 23:03:22 23:06:44 20° 267° (W) 23:10:00 437.250
ANTELSAT 29 Jan 23:06:41 23:11:06 63° 285° (WNW) 23:15:22 437.575/2403.000
ESTCUBE 1 29 Jan 23:07:09 23:11:25 43° 262° (W) 23:15:42 437.505/2401.250
TIGRISAT 29 Jan 23:14:06 23:18:27 53° 286° (WNW) 23:22:40 435.000
NANOSAT C BR1 29 Jan 23:16:27 23:20:47 84° 284° (WNW) 23:25:04 145.865
ISS 29 Jan 23:16:54 23:19:00 15° 339° (NNW) 23:21:02 145.825
SPROUT 29 Jan 23:19:01 23:23:14 54° 74° (ENE) 23:27:29 437.525
QB50P2 29 Jan 23:31:16 23:35:29 55° 286° (WNW) 23:39:40 145.880/145.840
CUBEBUG 1 29 Jan 23:37:31 23:40:54 21° 267° (W) 23:44:12 437.445
QB50P1 29 Jan 23:40:27 23:44:34 43° 287° (WNW) 23:48:37 145.935-145.965
BUGSAT 1 29 Jan 23:48:36 23:52:43 46° 287° (WNW) 23:56:48 437.445
TISAT 1 29 Jan 23:53:50 23:58:02 58° 260° (W) 00:02:15 437.305
POLYITAN 1 29 Jan 23:56:00 23:59:47 29° 289° (WNW) 00:03:28 437.675
GONETS M04 30 Jan 00:07:40 00:14:31 28° 85° (E) 00:21:39
UNISAT 6 30 Jan 00:08:54 00:11:24 15° 294° (WNW) 00:13:43 437.425
POPSAT HIP 1 30 Jan 00:16:15 00:19:20 19° 292° (WNW) 00:22:16 437.405
DUCHIFAT 1 30 Jan 00:18:34 00:21:33 18° 292° (WNW) 00:24:22 145.980
SWISSCUBE 30 Jan 00:37:28 00:42:09 63° 74° (ENE) 00:46:53 437.505
BEESAT 30 Jan 00:53:03 00:57:48 85° 76° (ENE) 01:02:35 436.000
STARS 30 Jan 00:57:19 00:58:36 11° 64° (ENE) 01:00:08 437.465
ITUPSAT 1 30 Jan 00:57:25 01:02:10 89° 259° (W) 01:06:58 437.325
SPROUT 30 Jan 00:58:01 00:59:45 12° 271° (W) 01:01:14 437.525
KKS-1 30 Jan 01:03:13 01:06:27 20° 68° (ENE) 01:09:50 437.445
O/OREOS (USA 219) 30 Jan 01:06:51 01:10:27 23° 58° (ENE) 01:14:08 437.305
M-CUBED/EXP-1 PRIME 30 Jan 01:14:52 01:15:25 10° 63° (ENE) 01:16:11 437.505
BEESAT 2 30 Jan 01:14:53 01:18:00 22° 112° (ESE) 01:21:15 435.950
BEESAT 3 30 Jan 01:27:32 01:31:13 34° 115° (ESE) 01:35:00 437.485
Gurwin Techsat 1B 30 Jan 01:31:00 01:33:37 14° 89° (E) 01:36:32 435.225
AUBIESAT-1 30 Jan 01:44:56 01:47:52 21° 67° (ENE) 01:50:45 437.475
Oscar 19 30 Jan 01:49:17 01:54:28 86° 284° (WNW) 01:59:36 437.125/150
GONETS M04 30 Jan 02:02:15 02:10:53 59° 282° (WNW) 02:19:28
ITAMSAT 1 30 Jan 02:07:09 02:12:11 47° 99° (E) 02:17:14 435.822/435.867
SWISSCUBE 30 Jan 02:18:31 02:20:33 12° 271° (W) 02:22:18 437.505
STARS 30 Jan 02:30:09 02:34:35 68° 259° (W) 02:39:02 437.465
ISS 30 Jan 02:32:26 02:34:19 14° 19° (NNE) 02:36:14 145.825
PCSat 30 Jan 02:37:49 02:39:22 11° 104° (ESE) 02:41:17 145.827
KKS-1 30 Jan 02:38:47 02:42:54 35° 263° (W) 02:47:02 437.445
HORYU 2 30 Jan 02:45:33 02:48:55 21° 94° (E) 02:52:21 437.375
O/OREOS (USA 219) 30 Jan 02:45:48 02:49:59 34° 255° (WSW) 02:54:05 437.305
M-CUBED/EXP-1 PRIME 30 Jan 02:46:06 02:50:09 59° 254° (WSW) 02:53:52 437.505
MOZHAYETS 4 30 Jan 02:50:20 02:51:23 11° 64° (ENE) 02:52:42
AIST 2 30 Jan 02:51:46 02:56:00 79° 301° (WNW) 03:00:20 435.215
BEESAT 2 30 Jan 02:52:18 02:56:04 32° 308° (NW) 02:59:51 435.950
DANDE 30 Jan 03:05:11 03:11:45 29° 86° (E) 03:18:54 436.750
BEESAT 3 30 Jan 03:06:12 03:09:28 22° 312° (NW) 03:12:42 437.485
Gurwin Techsat 1B 30 Jan 03:08:53 03:14:10 66° 286° (WNW) 03:19:25 435.225
AUBIESAT-1 30 Jan 03:19:18 03:22:44 26° 258° (WSW) 03:25:54 437.475
AO-7 30 Jan 03:21:11 03:28:05 29° 95° (E) 03:35:10 29.400- 29.500
CUSAT 1 30 Jan 03:28:30 03:36:10 48° 92° (E) 03:44:10 437.405
Oscar 19 30 Jan 03:32:16 03:33:08 10° 299° (WNW) 03:33:39 437.125/150
ITAMSAT 1 30 Jan 03:47:31 03:51:23 21° 294° (WNW) 03:55:07 435.822/435.867
RS-15 30 Jan 03:49:13 03:59:00 42° 109° (ESE) 04:09:00 29.354- 29.394
ISS 30 Jan 04:08:02 04:11:20 70° 39° (NE) 04:14:37 145.825
PCSat 30 Jan 04:16:45 04:22:11 83° 300° (WNW) 04:27:38 145.827
HORYU 2 30 Jan 04:21:42 04:25:40 32° 290° (WNW) 04:29:34 437.375
MOZHAYETS 4 30 Jan 04:23:30 04:28:06 74° 260° (W) 04:32:41
JAS-2 30 Jan 04:24:15 04:29:43 43° 99° (E) 04:35:54 435.910
PRISM 30 Jan 04:25:45 04:26:17 10° 65° (ENE) 04:27:02 437.425
AIST 2 30 Jan 04:34:35 04:35:26 10° 321° (NW) 04:36:05 435.215
CUBESAT XI-V 30 Jan 04:44:14 04:46:17 13° 65° (ENE) 04:48:35 437.345
DANDE 30 Jan 04:46:32 04:54:41 65° 283° (WNW) 05:03:19 436.750
STRAND 1 30 Jan 05:11:33 05:15:17 21° 66° (ENE) 05:19:09 437.568
CUSAT 1 30 Jan 05:11:42 05:19:23 40° 289° (WNW) 05:27:03 437.405
AO-7 30 Jan 05:13:13 05:21:22 58° 293° (WNW) 05:29:24 29.400- 29.500
ISS 30 Jan 05:46:29 05:47:28 11° 231° (SW) 05:48:19 145.825
Cubesat XI-IV 30 Jan 05:56:59 06:01:58 39° 97° (E) 06:07:00 437.490
PRISM 30 Jan 05:57:16 06:01:21 63° 259° (WSW) 06:05:26 437.425
RS-15 30 Jan 06:00:29 06:11:08 54° 310° (NW) 06:21:52 29.354- 29.394
PCSat 30 Jan 06:03:42 06:06:32 14° 318° (NW) 06:09:09 145.827
JAS-2 30 Jan 06:09:56 06:14:44 27° 291° (WNW) 06:19:50 435.910
YUBILEINY 30 Jan 06:11:21 06:19:47 50° 76° (ENE) 06:28:18 435.215
CUTE-I 30 Jan 06:16:28 06:21:47 59° 100° (E) 06:27:06 437.470
CUBESAT XI-V 30 Jan 06:18:45 06:23:18 60° 260° (W) 06:27:52 437.345
DANDE 30 Jan 06:35:37 06:40:03 14° 303° (WNW) 06:43:55 436.750
